Regional Weather Roundup
Issued by NWS

Home | Current Version | Previous Version | Text Only | Print | Product List | Glossary Off
Versions: 1 2 3 4 5 6 7 8 9 10 11 12 13 14 15 16 17 18 19 20 21 22 23 24 25 26 27 28 29 30 31 32 33 34 35 36 37 38 39 40 41 42 43 44 45 46 47 48 49 50

941
ASUS43 KBIS 151310
RWRND

NORTH DAKOTA REGIONAL WEATHER ROUNDUP
NATIONAL WEATHER SERVICE BISMARCK ND
700 AM CST FRI DEC 15 2017

NOTE: "FAIR" INDICATES FEW OR NO CLOUDS BELOW 12,000 FEET WITH NO
SIGNIFICANT WEATHER AND/OR OBSTRUCTIONS TO VISIBILITY.


NDZ001>003-009>011-017-151400-
NORTHWEST NORTH DAKOTA

CITY           SKY/WX    TMP DP  RH WIND       PRES   REMARKS
WILLISTON      CLOUDY    29  24  82 S5        29.71F
MINOT          CLOUDY    30  24  78 SE3       29.73F
MINOT AFB      CLOUDY    29  24  82 S3        29.72F
$$

NDZ018>021-031>035-040>046-151400-
SOUTHWEST NORTH DAKOTA

CITY           SKY/WX    TMP DP  RH WIND       PRES   REMARKS
BISMARCK       CLOUDY    29  23  78 S5        29.81F
DICKINSON      CLOUDY    29  24  82 SW10      29.73F WCI  20
GARRISON         N/A     29  25  85 S5        29.75F
HETTINGER ARPT PTCLDY    26  21  81 W7        29.79F WCI  18
$$

NDZ004>008-012>016-024-026-027-054-151400-
NORTHEAST NORTH DAKOTA

CITY           SKY/WX    TMP DP  RH WIND       PRES   REMARKS
GRAND FORKS    LGT SNOW  17  15  92 S3        29.88F FOG
GRND FRKS AFB  FLURRIES  18  14  86 S5        29.87F WCI  11
DEVILS LAKE    FLURRIES  21  19  93 SE8       29.80F WCI  12
$$

NDZ022-023-025-028>030-036>039-047>053-151400-
SOUTHEAST NORTH DAKOTA

CITY           SKY/WX    TMP DP  RH WIND       PRES   REMARKS
FARGO          LGT SNOW  19  15  84 E5        29.89F FOG     WCI  12
JAMESTOWN      CLOUDY    23  22  96 S7        29.82F WCI  15
$$





USA.gov is the U.S. government's official web portal to all federal, state and local government web resources and services.